Wind_Speed
6 6 6 5 4 4 4 4 5 6 5 4 2 1 1 1 3 4 2 3 5 5 2 6 7 7 7 8 10 13 14 16 18 19 19 20 23 26 30 32 34 35 36 36 36
6 6 6 6 5 5 4 3 3 3 2 2 3 2 0 0 3 5 6 8 9 7 5 6 7 7 7 8 9 12 13 16 18 19 20 22 25 27 29 31 34 37 38 39 40
7 7 7 7 8 9 9 9 9 9 8 7 5 5 6 7 8 9 12 13 12 11 13 12 11 9 8 8 9 9 12 14 17 19 23 27 28 31 33 32 36 38 41 43 45
8 8 8 8 8 10 11 12 12 13 14 14 14 13 13 15 14 16 19 20 19 15 16 13 12 12 10 10 10 10 11 14 15 18 20 21 23 26 27 32 35 40 44 46 48
8 9 9 10 11 11 12 13 13 12 12 14 16 18 19 19 18 20 22 20 19 17 16 16 14 12 10 11 10 11 12 14 16 18 20 21 23 23 27 32 33 36 40 43 46
9 10 11 11 12 12 11 11 11 12 13 14 15 15 16 19 20 19 18 17 17 16 18 18 17 15 12 12 11 12 14 15 16 18 19 19 22 22 28 28 29 31 31 35 39
11 10 11 13 14 13 13 12 12 12 13 14 15 16 16 16 15 15 16 17 18 17 19 20 19 17 15 13 13 15 15 15 17 18 17 17 20 22 25 29 30 32 33 32 33
12 12 13 14 14 15 16 15 15 15 15 16 16 16 17 17 17 16 16 18 19 20 22 23 23 20 17 15 16 18 18 18 18 18 18 17 18 23 25 26 26 28 29 32 34
13 14 16 16 17 18 18 18 18 19 18 18 19 19 18 18 18 17 18 19 20 21 23 25 25 22 20 19 20 19 19 20 22 20 20 21 21 24 27 27 25 28 31 31 31
15 16 17 18 19 20 20 20 19 20 21 20 20 20 19 19 18 19 21 20 20 21 23 25 26 26 25 23 22 22 22 21 22 24 22 25 26 27 31 26 26 28 30 32 33
17 18 19 20 20 21 21 22 21 19 22 21 19 21 19 19 19 21 22 23 23 24 27 27 29 31 27 26 26 26 25 24 25 25 23 28 26 28 30 28 29 29 26 29 29
24 23 23 22 24 24 24 24 23 22 19 25 21 21 21 22 21 23 23 24 25 27 29 28 30 31 28 28 27 28 27 25 26 28 27 29 26 29 30 31 30 28 25 26 23
28 31 30 28 28 27 29 27 26 26 25 25 25 25 24 24 24 25 26 25 26 28 28 29 31 28 29 28 27 27 29 28 29 29 29 31 28 30 31 31 30 28 24 25 24
28 30 30 30 28 28 30 31 31 32 31 31 30 27 26 25 27 27 29 29 30 31 31 30 31 31 29 27 29 29 30 29 29 31 32 31 34 23 34 34 32 30 29 26 25
32 30 33 31 30 29 30 30 32 34 34 31 29 28 28 28 30 31 29 31 32 34 32 30 31 30 27 27 30 28 28 28 31 33 33 30 34 23 29 30 30 30 30 30 26
34 33 33 33 32 31 33 30 30 30 32 32 31 29 30 30 32 31 30 33 33 35 36 31 34 32 32 32 32 29 31 32 32 35 35 32 35 27 23 29 28 29 29 30 29
41 40 36 35 34 34 35 35 35 31 33 37 34 32 32 30 32 33 35 36 36 37 37 35 33 35 33 34 32 31 31 34 35 35 36 35 37 29 24 26 29 30 30 30 30
37 37 39 37 35 35 35 37 39 36 37 42 42 38 37 36 37 39 40 39 38 40 39 39 37 32 34 34 34 34 33 33 38 38 38 37 38 29 26 25 28 32 32 32 33
35 34 31 33 35 36 35 36 37 39 41 44 45 44 43 43 43 43 43 42 42 41 42 42 40 39 35 36 35 35 35 36 39 41 44 41 38 34 24 25 29 34 36 37 35
31 32 32 33 34 35 37 37 39 41 42 43 45 45 47 46 47 46 46 45 44 45 46 46 47 43 41 38 40 37 37 38 41 45 46 43 41 37 33 28 30 35 37 39 36
34 35 35 33 33 33 35 36 37 37 41 43 46 49 51 52 52 52 52 50 47 47 49 51 52 50 48 44 40 42 41 42 44 47 48 48 44 41 38 40 35 35 37 39 40
35 34 37 38 40 40 40 40 41 43 44 46 48 50 50 51 53 55 54 53 51 49 50 50 53 55 54 50 47 42 42 45 48 48 49 50 47 43 44 42 40 41 46 44 46
36 36 37 40 43 46 48 48 49 50 51 52 53 55 55 56 56 56 56 54 53 52 52 51 52 55 56 54 51 48 48 47 49 49 50 53 48 46 45 42 43 45 46 51 49
43 42 41 42 44 45 47 50 52 54 56 57 59 61 62 62 60 63 61 58 57 55 55 53 55 55 56 55 53 54 53 51 51 53 51 50 47 42 43 46 47 48 50 50 49
46 46 44 44 47 48 49 51 52 54 56 59 61 62 65 67 66 63 62 62 60 58 57 56 54 52 50 49 51 54 54 54 55 52 53 47 45 40 46 50 48 48 49 48 47
45 45 46 47 50 51 53 52 53 54 58 54 53 55 62 66 70 69 66 64 63 59 58 58 55 49 53 46 49 54 55 54 51 48 50 45 45 40 46 47 48 49 49 48 47
49 49 49 51 53 54 54 54 52 55 53 48 48 49 49 53 59 63 67 66 67 66 61 58 58 57 56 52 54 55 53 50 49 47 46 46 45 48 45 47 49 48 47 44 45
Wind_Direction
353 342 355 17 38 35 38 51 46 48 54 61 79 131 230 88 136 164 45 345 359 14 293 229 223 222 226 234 242 245 246 250 255 260 260 262 266 267 269 272 274 274 274 271 271
344 338 327 321 319 326 323 320 332 355 17 55 62 66 85 299 304 329 315 319 317 318 318 261 246 242 240 237 235 241 250 257 259 260 263 258 257 257 257 260 265 267 269 271 270
332 326 328 321 306 304 307 300 293 296 300 298 286 295 309 298 302 309 316 319 313 301 302 297 266 245 229 240 256 281 282 273 268 264 260 260 261 263 261 259 262 264 267 267 267
320 318 318 318 321 315 309 306 303 299 291 289 292 290 289 297 306 307 309 306 303 294 287 269 260 243 241 257 267 281 292 287 282 272 270 279 274 270 273 272 269 267 269 272 274
310 307 307 308 311 311 309 309 306 302 297 293 290 289 290 288 296 292 298 295 288 277 266 258 248 248 253 264 274 287 292 297 292 283 274 272 273 273 268 267 269 269 269 270 270
308 302 296 297 300 302 305 306 301 295 294 294 294 292 291 289 286 289 287 275 267 260 262 254 247 248 255 261 276 284 289 297 294 288 285 282 281 282 280 282 277 274 273 274 275
302 299 294 290 289 289 290 291 292 286 286 286 289 289 290 289 283 282 278 268 264 261 258 250 250 254 260 264 268 274 281 290 290 289 285 279 276 275 273 278 280 282 285 285 284
312 305 297 290 285 281 281 280 281 282 284 286 285 284 286 285 279 277 268 266 264 260 257 253 254 253 256 261 263 268 277 282 288 292 293 288 277 284 286 285 289 294 291 287 288
316 311 306 299 292 284 280 278 278 282 281 285 283 284 283 282 280 276 267 265 264 263 262 257 256 258 259 258 260 265 270 278 286 290 292 297 294 290 284 288 290 286 286 288 287
310 309 307 302 297 290 285 281 279 280 282 282 281 278 279 277 276 274 270 266 268 270 269 264 263 263 262 260 259 260 263 268 275 284 295 295 292 290 286 292 295 295 295 297 298
305 305 302 300 297 291 288 284 282 280 284 282 277 274 271 268 270 273 273 273 269 270 270 266 264 260 261 260 261 263 265 267 275 281 281 279 283 283 289 293 293 295 299 300 303
304 306 306 305 299 294 288 284 283 283 283 286 280 275 270 267 266 270 272 271 270 270 269 263 261 263 263 262 260 264 268 270 274 275 280 279 278 282 287 287 289 293 299 305 307
298 297 297 295 292 291 287 287 289 288 286 281 284 280 275 271 269 270 273 273 273 275 272 268 264 268 267 266 268 269 270 267 271 274 278 280 281 282 282 283 293 299 301 305 308
302 301 300 297 293 289 284 283 284 285 287 285 283 282 280 280 275 273 276 277 277 275 272 269 268 268 266 268 269 270 271 270 272 271 271 280 286 274 280 288 295 297 298 297 299
302 300 298 296 294 291 288 286 287 288 289 289 287 283 278 275 276 280 281 277 276 275 272 271 268 267 268 269 270 275 275 273 269 270 277 285 287 288 285 284 288 288 288 290 293
297 298 296 295 295 293 291 288 286 285 285 286 285 284 279 276 276 282 282 281 281 276 270 265 268 269 271 273 274 274 271 270 270 273 279 284 287 291 286 287 286 282 277 279 283
295 294 291 291 290 290 288 288 286 284 286 282 280 277 278 278 278 281 280 280 282 278 269 263 260 266 271 273 273 274 274 274 272 273 278 281 282 292 288 284 285 284 276 271 270
298 294 292 292 293 291 286 282 283 286 283 282 283 282 281 280 278 278 276 277 277 280 277 267 260 263 268 272 273 272 274 274 276 276 276 279 283 286 289 284 282 284 281 273 269
296 296 295 292 291 290 289 287 285 284 281 280 281 282 282 283 282 279 278 279 278 275 279 278 270 267 265 268 271 272 274 273 274 275 277 278 280 282 283 282 276 278 282 279 273
301 296 295 294 292 290 287 286 285 284 284 284 283 280 279 278 274 273 275 278 278 276 275 276 273 268 269 267 269 274 274 274 275 276 276 279 279 283 285 280 275 276 275 277 277
304 302 299 295 293 291 290 289 288 288 286 285 283 281 279 278 276 275 276 275 270 270 270 271 273 271 269 268 268 269 270 270 272 273 278 280 279 283 288 289 289 284 276 273 272
302 300 300 300 299 296 293 291 290 289 289 288 286 285 283 281 279 276 274 272 269 265 266 267 268 268 269 271 269 265 263 264 268 272 272 276 278 284 286 290 291 284 276 273 268
297 297 296 296 295 294 292 290 289 289 288 285 284 281 281 279 277 276 275 272 270 269 267 265 262 264 265 267 267 266 264 263 263 265 269 271 281 284 285 289 281 273 273 275 276
300 299 296 293 291 292 293 294 292 289 287 285 282 279 275 272 270 272 271 269 267 266 267 264 261 262 263 267 267 267 267 266 267 268 270 273 277 278 279 276 275 275 278 281 281
299 298 298 296 299 298 294 292 290 290 290 289 285 280 277 273 267 264 263 266 268 270 273 275 272 266 265 267 267 266 265 266 267 271 271 275 272 277 276 275 277 280 280 280 278
299 298 298 299 300 298 298 299 299 298 297 294 288 284 277 273 271 268 263 261 259 264 268 269 272 270 270 271 270 267 266 269 273 274 274 277 274 280 273 278 278 278 279 278 275
299 298 299 301 301 301 302 303 301 300 300 297 293 290 285 279 277 273 265 265 263 262 263 267 270 271 269 266 264 262 270 273 272 272 275 276 276 276 278 279 279 280 280 277 274
Height
5857 5857 5856 5855 5854 5854 5853 5853 5852 5851 5850 5850 5849 5849 5850 5850 5850 5850 5850 5850 5850 5849 5849 5849 5850 5850 5851 5851 5852 5852 5852 5852 5852 5852 5854 5855 5854 5854 5853 5852 5853 5853 5854 5856 5857
5857 5856 5856 5855 5854 5854 5853 5853 5852 5852 5851 5850 5850 5850 5850 5850 5850 5849 5849 5848 5848 5847 5847 5847 5847 5847 5848 5848 5848 5848 5849 5848 5848 5848 5848 5849 5849 5848 5848 5847 5845 5845 5846 5846 5848
5856 5856 5854 5854 5853 5853 5852 5852 5851 5850 5850 5849 5849 5848 5848 5848 5848 5847 5847 5846 5845 5844 5844 5845 5845 5845 5845 5845 5845 5845 5845 5844 5844 5843 5842 5841 5843 5842 5842 5843 5841 5840 5838 5837 5837
5855 5855 5854 5853 5852 5851 5850 5849 5849 5848 5847 5847 5846 5846 5845 5844 5845 5844 5843 5842 5841 5841 5841 5841 5841 5841 5841 5841 5841 5841 5840 5839 5839 5838 5838 5838 5838 5838 5838 5836 5836 5834 5832 5831 5831
5854 5853 5852 5851 5851 5849 5848 5847 5846 5845 5844 5843 5843 5842 5842 5841 5840 5839 5839 5838 5837 5837 5837 5837 5837 5838 5838 5838 5837 5836 5836 5834 5833 5833 5832 5832 5831 5832 5830 5828 5828 5829 5827 5825 5824
5852 5851 5850 5849 5848 5847 5847 5845 5844 5843 5842 5840 5839 5838 5838 5837 5836 5835 5834 5833 5833 5833 5832 5833 5833 5833 5834 5833 5833 5832 5831 5830 5828 5827 5828 5828 5826 5827 5824 5824 5822 5821 5821 5819 5817
5850 5848 5847 5847 5846 5845 5844 5843 5842 5840 5839 5838 5836 5835 5834 5833 5832 5830 5829 5829 5828 5828 5828 5828 5828 5829 5828 5828 5827 5826 5826 5825 5824 5823 5823 5824 5823 5821 5819 5817 5817 5815 5813 5813 5812
5848 5846 5844 5843 5842 5841 5840 5839 5838 5837 5835 5833 5832 5831 5829 5828 5827 5826 5825 5824 5824 5824 5823 5824 5824 5823 5822 5822 5821 5820 5820 5819 5818 5818 5817 5818 5817 5814 5812 5811 5811 5809 5807 5805 5803
5846 5844 5842 5840 5838 5837 5836 5835 5834 5832 5831 5829 5828 5827 5826 5824 5823 5822 5821 5820 5819 5819 5819 5819 5819 5817 5817 5816 5816 5815 5813 5812 5811 5811 5810 5809 5810 5808 5806 5806 5805 5803 5800 5799 5797
5843 5841 5839 5837 5835 5833 5831 5830 5829 5827 5826 5825 5823 5823 5821 5820 5818 5817 5816 5816 5814 5813 5814 5814 5813 5812 5811 5810 5810 5809 5808 5806 5805 5804 5803 5801 5803 5801 5798 5800 5798 5796 5794 5791 5787
5839 5837 5836 5833 5831 5829 5827 5825 5825 5824 5820 5819 5819 5817 5816 5815 5813 5812 5811 5810 5809 5809 5808 5808 5806 5805 5806 5804 5802 5802 5801 5800 5798 5796 5798 5796 5797 5794 5792 5791 5791 5790 5788 5784 5780
5835 5833 5831 5829 5827 5824 5821 5820 5819 5818 5818 5813 5813 5812 5811 5809 5809 5807 5807 5806 5804 5803 5802 5802 5799 5798 5799 5798 5796 5795 5795 5794 5793 5790 5791 5789 5791 5787 5786 5785 5784 5784 5781 5778 5774
5830 5827 5824 5823 5821 5819 5816 5815 5813 5812 5812 5809 5808 5807 5806 5805 5803 5802 5801 5799 5798 5796 5796 5794 5793 5792 5791 5790 5789 5788 5788 5787 5787 5784 5783 5781 5783 5781 5778 5778 5778 5776 5775 5771 5770
5825 5820 5818 5815 5815 5812 5809 5808 5806 5804 5804 5804 5802 5802 5801 5799 5796 5796 5794 5794 5792 5791 5790 5789 5786 5785 5784 5784 5781 5781 5780 5780 5779 5777 5776 5775 5772 5779 5771 5769 5769 5767 5766 5765 5764
5817 5815 5811 5808 5807 5804 5803 5800 5799 5797 5796 5796 5794 5794 5793 5793 5790 5788 5788 5787 5786 5784 5785 5781 5779 5778 5778 5776 5774 5775 5773 5772 5769 5767 5767 5769 5765 5771 5766 5764 5762 5761 5759 5757 5757
5809 5807 5805 5802 5800 5799 5794 5793 5792 5792 5788 5787 5787 5786 5785 5784 5783 5782 5781 5779 5778 5776 5775 5775 5772 5771 5769 5768 5767 5767 5765 5763 5762 5760 5760 5760 5756 5761 5761 5756 5755 5754 5753 5751 5750
5799 5797 5796 5794 5792 5790 5788 5787 5785 5784 5782 5778 5778 5777 5777 5777 5775 5774 5772 5771 5768 5766 5766 5766 5765 5762 5761 5759 5759 5758 5756 5754 5753 5752 5752 5751 5748 5753 5752 5749 5747 5746 5745 5744 5743
5790 5788 5785 5784 5782 5780 5779 5778 5776 5776 5773 5767 5767 5768 5768 5767 5766 5763 5761 5759 5759 5756 5754 5755 5756 5756 5753 5752 5751 5749 5748 5746 5741 5742 5742 5741 5740 5744 5743 5741 5739 5736 5735 5734 5734
5783 5779 5777 5775 5773 5771 5770 5767 5766 5764 5762 5759 5758 5756 5757 5755 5754 5751 5748 5748 5746 5746 5743 5740 5743 5743 5744 5742 5741 5739 5738 5737 5733 5731 5729 5732 5734 5734 5736 5734 5731 5727 5725 5724 5724
5776 5772 5769 5767 5764 5763 5761 5759 5756 5754 5752 5749 5746 5746 5744 5743 5741 5739 5738 5738 5736 5734 5732 5729 5727 5730 5731 5732 5730 5729 5726 5725 5722 5719 5718 5720 5720 5722 5724 5725 5723 5719 5716 5715 5714
5768 5764 5761 5759 5757 5755 5751 5749 5747 5744 5741 5739 5737 5733 5730 5729 5727 5726 5726 5725 5723 5721 5720 5718 5715 5718 5717 5720 5720 5717 5715 5713 5710 5709 5707 5706 5710 5710 5712 5710 5711 5709 5707 5704 5702
5758 5757 5752 5748 5747 5744 5742 5739 5737 5733 5731 5726 5723 5719 5718 5716 5713 5712 5712 5711 5709 5708 5706 5706 5702 5701 5702 5703 5704 5705 5704 5701 5697 5698 5696 5695 5698 5701 5700 5701 5700 5695 5690 5690 5689
5751 5747 5744 5739 5735 5731 5728 5726 5724 5722 5718 5715 5710 5706 5703 5701 5698 5697 5696 5696 5694 5694 5692 5691 5688 5688 5688 5690 5690 5689 5689 5688 5686 5685 5685 5680 5690 5688 5686 5686 5683 5681 5681 5676 5677
5737 5735 5734 5730 5725 5722 5718 5713 5709 5703 5698 5696 5694 5689 5686 5684 5680 5676 5677 5678 5676 5676 5675 5674 5673 5675 5676 5676 5675 5673 5674 5674 5672 5672 5671 5674 5674 5680 5676 5673 5670 5670 5667 5665 5664
5725 5721 5717 5715 5711 5707 5703 5699 5694 5690 5684 5677 5673 5668 5663 5663 5661 5661 5659 5657 5659 5660 5660 5658 5658 5660 5660 5661 5659 5656 5657 5657 5656 5661 5652 5665 5659 5668 5658 5656 5658 5656 5654 5653 5650
5714 5709 5705 5701 5697 5693 5686 5682 5678 5673 5667 5662 5654 5653 5646 5641 5638 5641 5642 5643 5642 5645 5645 5643 5642 5644 5644 5648 5642 5639 5642 5642 5644 5646 5640 5645 5649 5642 5645 5643 5641 5640 5640 5638 5636
5701 5698 5692 5687 5681 5677 5671 5666 5661 5655 5650 5643 5639 5636 5631 5625 5622 5623 5622 5624 5627 5628 5629 5629 5628 5629 5629 5629 5625 5628 5632 5631 5630 5630 5630 5631 5634 5630 5631 5629 5627 5626 5624 5623 5621